Location: Olsztyn
(53.7767°N, 20.4765°E)
Time: 15:15:44
(UTC+02:00)

Transit 2A Rocket - Visible Passes

Search period start: 14 July 2024 00:00
Search period end: 24 July 2024 00:00
Orbit: 582 x 910 km, 66.7° (Epoch: 13 July)

Date Brightness Start Highest point End Pass type
(mag) Time Alt. Az. Time Alt. Az. Time Alt. Az.
14 Jul 6.1 00:51:43 10° NW 00:57:13 36° WSW 01:00:33 21° SSW visible
14 Jul 6.1 22:24:40 10° NW 22:30:34 49° NE 22:36:27 10° ESE visible
15 Jul 5.6 00:07:22 10° NW 00:13:18 54° WSW 00:17:11 21° S visible
15 Jul 7.3 01:52:15 10° WNW 01:54:35 12° W 01:56:55 10° WSW visible
15 Jul 6.5 21:40:30 10° NW 21:46:08 38° NNE 21:51:48 10° E visible
15 Jul 5.4 23:23:08 10° NW 23:29:15 78° SW 23:33:53 18° SSE visible
16 Jul 6.9 01:06:43 10° WNW 01:10:57 20° WSW 01:13:39 15° SW visible
16 Jul 5.5 22:38:57 10° NW 22:45:05 76° NE 22:50:38 12° SE visible
17 Jul 6.4 00:22:00 10° NW 00:27:12 30° WSW 00:30:24 19° SSW visible
17 Jul 5.9 21:54:47 10° NW 22:00:47 56° NE 22:06:44 10° ESE visible
17 Jul 5.9 23:37:34 10° NW 23:43:20 45° WSW 23:47:11 20° S visible
18 Jul 5.5 22:53:16 10° NW 22:59:19 66° SW 23:04:02 17° SSE visible
19 Jul 7.2 00:37:19 10° WNW 00:40:50 16° WSW 00:43:48 11° SW visible
19 Jul 5.4 22:09:04 10° NW 22:15:12 88° NE 22:20:54 12° SE visible
19 Jul 6.8 23:52:20 10° WNW 23:57:08 25° WSW 00:00:41 15° SSW visible
20 Jul 6.3 23:07:46 10° NW 23:13:19 37° WSW 23:17:36 15° S visible
21 Jul 5.8 22:23:25 10° NW 22:29:22 56° WSW 22:34:34 13° SSE visible
22 Jul 7.4 00:08:09 10° WNW 00:10:40 13° W 00:13:10 10° SW visible
22 Jul 5.5 21:39:10 10° NW 21:45:17 80° SW 21:51:16 10° SSE visible
22 Jul 7.1 23:22:42 10° WNW 23:27:02 21° WSW 23:31:15 10° SSW visible
23 Jul 6.6 22:38:00 10° NW 22:43:15 31° WSW 22:48:22 10° S visible
